When you browse on this site, cookies collect data to enhance your experience and personalize the content and advertising you see.
Visit our Privacy Policy to learn more. By continuing to use the site, you agree to this use of cookies and data.
  • En España
  • Lista de países
  • Para 7 días
  • Temperatura del agua
  • El tiempo en el mapa
  • Informadores
  • user-avatar
    Iniciar sesión

    Tiempo cada hora Cartagena

    Hoy, 6 Abril, Lunes

    Tiempo Temperatura Precipitaciones Viento Presión Humedad
    00:00 +12°C° 0 mm 2 mps 765 mmHg 88%
    01:00 +12°C° 0 mm 2 mps 764 mmHg 87%
    02:00 +12°C° 0 mm 2 mps 764 mmHg 87%
    03:00 +12°C° 0 mm 2 mps 764 mmHg 87%
    04:00 +12°C° 0 mm 2 mps 764 mmHg 88%
    05:00 +10°C° 0 mm 2 mps 765 mmHg 88%
    06:00 +10°C° 0 mm 2 mps 765 mmHg 90%
    07:00 +13°C° 0 mm 2 mps 765 mmHg 80%
    08:00 +15°C° 0 mm 2 mps 766 mmHg 70%
    09:00 +17°C° 0 mm 2 mps 766 mmHg 60%
    10:00 +18°C° 0 mm 2 mps 766 mmHg 57%
    11:00 +19°C° 0 mm 2 mps 766 mmHg 54%
    12:00 +20°C° 0 mm 2 mps 766 mmHg 51%
    13:00 +20°C° 0 mm 3 mps 766 mmHg 52%
    14:00 +20°C° 0 mm 3 mps 766 mmHg 53%
    15:00 +20°C° 0 mm 3 mps 766 mmHg 55%
    16:00 +19°C° 0 mm 3 mps 766 mmHg 59%
    17:00 +18°C° 0 mm 3 mps 766 mmHg 63%
    18:00 +17°C° 0 mm 3 mps 766 mmHg 67%
    19:00 +16°C° 0 mm 3 mps 766 mmHg 71%
    20:00 +16°C° 0 mm 3 mps 767 mmHg 75%
    21:00 +14°C° 0 mm 3 mps 768 mmHg 79%
    22:00 +14°C° 0 mm 3 mps 767 mmHg 80%
    23:00 +13°C° 0 mm 3 mps 767 mmHg 82%

    Mañana, 7 Abril, Martes

    Tiempo Temperatura Precipitaciones Viento Presión Humedad
    00:00 +13°C° 0 mm 3 mps 767 mmHg 84%
    01:00 +13°C° 0 mm 3 mps 767 mmHg 85%
    02:00 +12°C° 0 mm 3 mps 767 mmHg 86%
    03:00 +12°C° 0 mm 3 mps 767 mmHg 87%
    04:00 +12°C° 0 mm 3 mps 767 mmHg 88%
    05:00 +12°C° 0 mm 4 mps 767 mmHg 89%
    06:00 +12°C° 0 mm 4 mps 767 mmHg 90%
    07:00 +13°C° 0 mm 4 mps 768 mmHg 80%
    08:00 +15°C° 0 mm 5 mps 768 mmHg 71%
    09:00 +17°C° 0 mm 5 mps 768 mmHg 61%
    10:00 +19°C° 0 mm 5 mps 768 mmHg 55%
    11:00 +20°C° 0 mm 6 mps 768 mmHg 49%
    12:00 +21°C° 0 mm 6 mps 768 mmHg 44%
    13:00 +20°C° 0 mm 6 mps 767 mmHg 46%
    14:00 +20°C° 0 mm 6 mps 767 mmHg 48%
    15:00 +20°C° 0 mm 7 mps 767 mmHg 50%
    16:00 +19°C° 0 mm 6 mps 767 mmHg 57%
    17:00 +17°C° 0 mm 6 mps 767 mmHg 64%
    18:00 +16°C° 0 mm 6 mps 767 mmHg 70%
    19:00 +15°C° 0 mm 6 mps 767 mmHg 76%
    20:00 +14°C° 0 mm 5 mps 768 mmHg 82%
    21:00 +13°C° 0 mm 5 mps 769 mmHg 88%
    22:00 +13°C° 0 mm 5 mps 769 mmHg 89%
    23:00 +13°C° 0 mm 4 mps 768 mmHg 90%

    Pasado mañana, 8 Abril, Miércoles

    Tiempo Temperatura Precipitaciones Viento Presión Humedad
    00:00 +12°C° 0 mm 4 mps 768 mmHg 91%
    01:00 +12°C° 0 mm 4 mps 768 mmHg 91%
    02:00 +12°C° 0 mm 4 mps 768 mmHg 91%
    03:00 +12°C° 0 mm 5 mps 768 mmHg 91%
    04:00 +12°C° 0 mm 4 mps 768 mmHg 91%
    05:00 +12°C° 0 mm 4 mps 768 mmHg 90%
    06:00 +11°C° 0 mm 4 mps 768 mmHg 90%
    07:00 +13°C° 0 mm 4 mps 768 mmHg 82%
    08:00 +15°C° 0 mm 5 mps 768 mmHg 73%
    09:00 +17°C° 0 mm 5 mps 768 mmHg 64%
    10:00 +19°C° 0 mm 5 mps 768 mmHg 60%
    11:00 +20°C° 0 mm 6 mps 768 mmHg 55%
    12:00 +21°C° 0 mm 6 mps 767 mmHg 50%
    13:00 +20°C° 0 mm 6 mps 767 mmHg 51%
    14:00 +20°C° 0 mm 6 mps 767 mmHg 51%
    15:00 +20°C° 0 mm 6 mps 766 mmHg 51%
    16:00 +19°C° 0 mm 6 mps 766 mmHg 57%
    17:00 +17°C° 0 mm 5 mps 766 mmHg 63%
    18:00 +16°C° 0 mm 5 mps 766 mmHg 70%
    19:00 +15°C° 0 mm 5 mps 766 mmHg 75%
    20:00 +15°C° 0 mm 4 mps 767 mmHg 80%
    21:00 +14°C° 0 mm 4 mps 767 mmHg 86%
    22:00 +14°C° 0 mm 4 mps 767 mmHg 87%
    23:00 +13°C° 0 mm 4 mps 767 mmHg 88%

    9 Abril, Jueves

    Tiempo Temperatura Precipitaciones Viento Presión Humedad
    00:00 +13°C° 0 mm 4 mps 767 mmHg 89%
    01:00 +13°C° 0 mm 4 mps 766 mmHg 90%
    02:00 +13°C° 0 mm 4 mps 766 mmHg 90%
    03:00 +13°C° 0 mm 4 mps 766 mmHg 90%
    04:00 +13°C° 0 mm 4 mps 766 mmHg 90%
    05:00 +12°C° 0 mm 4 mps 766 mmHg 90%
    06:00 +12°C° 0 mm 4 mps 766 mmHg 90%
    07:00 +14°C° 0 mm 5 mps 766 mmHg 83%
    08:00 +16°C° 0 mm 5 mps 766 mmHg 75%
    09:00 +17°C° 0 mm 5 mps 766 mmHg 67%
    10:00 +19°C° 0 mm 5 mps 766 mmHg 61%
    11:00 +20°C° 0 mm 6 mps 766 mmHg 56%
    12:00 +21°C° 0 mm 6 mps 766 mmHg 50%
    13:00 +21°C° 0 mm 6 mps 765 mmHg 50%
    14:00 +21°C° 0 mm 6 mps 765 mmHg 49%
    15:00 +21°C° 0 mm 5 mps 765 mmHg 49%
    16:00 +20°C° 0 mm 5 mps 765 mmHg 54%
    17:00 +19°C° 0 mm 4 mps 765 mmHg 60%
    18:00 +18°C° 0 mm 4 mps 765 mmHg 65%
    19:00 +17°C° 0 mm 4 mps 765 mmHg 69%
    20:00 +17°C° 0 mm 4 mps 766 mmHg 72%
    21:00 +15°C° 0 mm 4 mps 766 mmHg 76%
    22:00 +14°C° 0 mm 4 mps 766 mmHg 78%
    23:00 +14°C° 0 mm 3 mps 766 mmHg 80%

    10 Abril, Viernes

    Tiempo Temperatura Precipitaciones Viento Presión Humedad
    00:00 +13°C° 0 mm 3 mps 766 mmHg 82%
    01:00 +13°C° 0 mm 3 mps 766 mmHg 82%
    02:00 +13°C° 0 mm 3 mps 765 mmHg 82%
    03:00 +12°C° 0 mm 3 mps 765 mmHg 82%
    04:00 +12°C° 0 mm 3 mps 765 mmHg 81%
    05:00 +13°C° 0 mm 2 mps 765 mmHg 81%
    06:00 +13°C° 0 mm 2 mps 765 mmHg 80%
    07:00 +15°C° 0 mm 2 mps 765 mmHg 70%
    08:00 +17°C° 0 mm 2 mps 765 mmHg 60%
    09:00 +19°C° 0 mm 2 mps 766 mmHg 50%
    10:00 +20°C° 0 mm 3 mps 765 mmHg 47%
    11:00 +21°C° 0 mm 4 mps 765 mmHg 44%
    12:00 +22°C° 0 mm 4 mps 765 mmHg 41%
    13:00 +22°C° 0 mm 4 mps 765 mmHg 42%
    14:00 +22°C° 0 mm 4 mps 764 mmHg 42%
    15:00 +22°C° 0 mm 4 mps 764 mmHg 43%
    16:00 +21°C° 0 mm 4 mps 764 mmHg 47%
    17:00 +19°C° 0 mm 3 mps 764 mmHg 52%
    18:00 +18°C° 0 mm 3 mps 764 mmHg 57%
    19:00 +17°C° 0 mm 3 mps 764 mmHg 62%
    20:00 +16°C° 0 mm 3 mps 765 mmHg 68%
    21:00 +14°C° 0 mm 3 mps 765 mmHg 74%
    22:00 +14°C° 0 mm 3 mps 765 mmHg 75%
    23:00 +14°C° 0 mm 3 mps 765 mmHg 76%

    11 Abril, Sábado

    Tiempo Temperatura Precipitaciones Viento Presión Humedad
    00:00 +14°C° 0 mm 2 mps 765 mmHg 77%
    01:00 +13°C° 0 mm 3 mps 765 mmHg 77%
    02:00 +13°C° 0 mm 3 mps 764 mmHg 77%
    03:00 +12°C° 0 mm 3 mps 764 mmHg 77%
    04:00 +13°C° 0 mm 3 mps 764 mmHg 75%
    05:00 +13°C° 0 mm 3 mps 764 mmHg 74%
    06:00 +13°C° 0 mm 3 mps 764 mmHg 72%
    07:00 +15°C° 0 mm 4 mps 765 mmHg 67%
    08:00 +16°C° 0 mm 5 mps 765 mmHg 62%
    09:00 +17°C° 0 mm 5 mps 765 mmHg 57%
    10:00 +19°C° 0 mm 6 mps 765 mmHg 53%
    11:00 +20°C° 0 mm 6 mps 765 mmHg 50%
    12:00 +21°C° 0 mm 6 mps 765 mmHg 46%
    13:00 +21°C° 0 mm 6 mps 764 mmHg 48%
    14:00 +20°C° 0 mm 6 mps 764 mmHg 49%
    15:00 +20°C° 0 mm 7 mps 764 mmHg 51%
    16:00 +19°C° 0 mm 5 mps 764 mmHg 55%
    17:00 +18°C° 0 mm 4 mps 764 mmHg 59%
    18:00 +18°C° 0 mm 3 mps 764 mmHg 63%
    19:00 +17°C° 0.1 mm 3 mps 764 mmHg 65%
    20:00 +17°C° 0.1 mm 3 mps 765 mmHg 67%
    21:00 +16°C° 0.1 mm 3 mps 765 mmHg 69%
    22:00 +16°C° 0 mm 3 mps 765 mmHg 69%
    23:00 +16°C° 0 mm 3 mps 765 mmHg 69%
    Mostrar más